Total_Precipitation_Accumulation
0.07 0.13 0.19 0.21 0.18 0.15 0.12 0.13 0.20 0.28 0.42 0.53 0.63 0.65 0.60 0.60 0.67 0.64 0.70 0.71 0.71 0.76 0.69 0.66 0.66 0.66 0.67 0.69 0.69 0.71 0.88 1.01 1.16 1.38 1.47 1.52 1.60 1.62 1.67 1.70 1.61 1.70 1.75 1.72
0.08 0.14 0.15 0.16 0.19 0.14 0.10 0.10 0.17 0.28 0.45 0.55 0.57 0.67 0.69 0.62 0.61 0.67 0.74 0.77 0.86 0.86 0.82 0.86 0.81 0.78 0.79 0.81 0.88 1.01 1.16 1.29 1.37 1.46 1.54 1.50 1.50 1.53 1.67 1.74 1.81 1.92 1.95 1.93
0.17 0.19 0.20 0.22 0.21 0.16 0.14 0.17 0.23 0.31 0.46 0.57 0.65 0.78 0.87 0.85 0.77 0.79 0.90 0.93 1.03 1.09 1.05 1.06 1.00 0.99 1.09 1.08 1.16 1.32 1.48 1.65 1.66 1.64 1.68 1.67 1.70 1.72 1.74 1.87 1.98 2.00 1.98 1.98
0.24 0.29 0.40 0.31 0.24 0.21 0.22 0.24 0.28 0.39 0.53 0.66 0.77 0.81 0.95 1.04 1.00 0.92 0.89 0.95 1.07 1.15 1.13 1.07 1.08 1.14 1.37 1.49 1.49 1.61 1.72 1.83 1.92 1.94 2.01 2.07 2.15 2.13 2.17 2.22 2.27 2.20 2.11 2.12
0.38 0.47 0.46 0.40 0.34 0.30 0.33 0.44 0.44 0.55 0.79 0.92 0.93 1.07 1.27 1.19 1.05 1.03 1.07 1.06 1.20 1.20 1.17 1.17 1.34 1.41 1.48 1.59 1.61 1.79 1.98 2.12 2.19 2.24 2.25 2.27 2.29 2.40 2.53 2.67 2.71 2.60 2.54 2.56
0.46 0.56 0.64 0.60 0.48 0.45 0.57 1.06 0.89 0.87 0.94 0.92 1.01 1.42 1.47 1.13 1.00 1.06 1.09 1.20 1.33 1.35 1.32 1.40 1.66 1.72 1.80 1.88 1.94 2.02 2.13 2.30 2.49 2.58 2.60 2.57 2.63 2.78 2.94 3.11 3.13 3.12 3.11 3.11
0.55 0.64 0.71 0.65 0.55 0.62 1.17 1.60 1.30 1.17 1.13 1.16 1.34 1.39 1.36 1.22 1.08 1.03 1.06 1.17 1.32 1.37 1.38 1.47 1.67 1.87 2.14 2.29 2.33 2.33 2.38 2.50 2.63 2.73 2.86 2.90 2.99 3.08 3.25 3.36 3.32 3.26 3.20 3.16
0.88 1.01 1.08 0.72 0.73 1.11 1.44 1.28 1.37 1.49 1.52 1.48 1.48 1.30 1.21 1.18 1.21 1.17 1.16 1.21 1.28 1.41 1.49 1.60 1.74 1.99 2.20 2.38 2.54 2.64 2.63 2.75 2.80 2.80 2.72 2.71 2.94 3.14 3.33 3.52 3.48 3.40 3.43 3.31
1.23 1.36 1.22 0.95 1.03 1.11 1.09 1.24 1.35 1.44 1.58 1.63 1.59 1.58 1.42 1.38 1.38 1.32 1.24 1.18 1.21 1.29 1.42 1.53 1.63 1.83 2.22 2.35 2.41 2.48 2.58 2.63 2.74 2.79 2.83 2.88 3.07 3.23 3.43 3.53 3.48 3.35 3.34 3.28
1.41 1.48 1.37 1.27 1.29 1.31 1.32 1.38 1.40 1.42 1.51 1.57 1.58 1.66 1.58 1.44 1.31 1.21 1.15 1.13 1.19 1.27 1.38 1.46 1.44 1.59 1.81 2.04 2.17 2.20 2.22 2.25 2.26 2.38 2.55 2.77 3.07 3.17 3.23 3.29 3.31 3.28 3.17 3.03
1.79 1.88 1.86 1.73 1.71 1.68 1.59 1.64 1.70 1.62 1.57 1.60 1.50 1.48 1.47 1.29 1.18 1.15 1.15 1.11 1.17 1.35 1.36 1.39 1.46 1.49 1.54 1.60 1.81 1.96 1.96 1.98 2.08 2.18 2.36 2.56 2.78 2.94 2.90 2.93 3.12 3.02 2.81 2.64
1.91 1.93 2.11 2.09 1.88 1.81 1.69 1.72 1.74 1.69 1.58 1.51 1.46 1.43 1.34 1.22 1.13 1.12 1.11 1.14 1.20 1.30 1.30 1.29 1.38 1.45 1.48 1.58 1.74 1.81 1.76 1.77 1.81 1.85 2.00 2.18 2.34 2.46 2.48 2.27 2.34 2.24 2.07 1.93
1.63 1.75 1.90 2.03 1.91 1.86 1.89 1.82 1.78 1.76 1.63 1.52 1.44 1.39 1.27 1.20 1.13 1.12 1.16 1.23 1.29 1.32 1.34 1.36 1.37 1.43 1.55 1.73 1.90 1.97 1.87 1.81 1.79 1.81 1.92 1.98 2.01 2.07 2.11 1.98 1.84 1.77 1.63 1.47
1.77 1.96 2.27 2.39 2.23 2.00 1.99 1.90 1.77 1.85 1.82 1.73 1.58 1.41 1.27 1.21 1.17 1.22 1.31 1.42 1.47 1.48 1.44 1.45 1.47 1.45 1.47 1.61 1.81 2.08 2.15 2.09 1.96 1.90 1.91 1.86 1.85 1.91 2.02 2.03 1.90 1.68 1.48 1.26
1.94 2.07 2.26 2.30 2.14 1.99 1.95 1.92 1.83 1.81 1.76 1.74 1.69 1.52 1.38 1.29 1.27 1.32 1.36 1.44 1.48 1.49 1.52 1.48 1.46 1.47 1.52 1.60 1.67 1.82 2.05 2.04 1.93 1.91 1.95 2.03 1.99 1.99 2.05 2.05 2.09 1.98 1.70 1.45
1.96 2.02 2.16 2.15 2.10 1.95 1.82 1.85 1.85 1.71 1.53 1.58 1.62 1.56 1.51 1.35 1.26 1.24 1.30 1.48 1.69 1.69 1.61 1.62 1.59 1.53 1.48 1.50 1.55 1.65 1.79 1.86 1.76 1.76 1.78 1.91 1.96 1.94 1.97 2.08 2.09 1.98 1.80 1.53
1.82 1.99 2.18 2.19 2.07 1.87 1.78 1.84 1.79 1.67 1.50 1.40 1.50 1.49 1.41 1.37 1.39 1.42 1.47 1.54 1.70 1.74 1.64 1.64 1.66 1.58 1.49 1.48 1.54 1.53 1.56 1.54 1.49 1.52 1.61 1.75 1.86 1.88 1.85 1.85 1.89 1.83 1.69 1.41
1.51 1.68 1.81 1.87 1.89 1.77 1.64 1.63 1.64 1.59 1.52 1.41 1.43 1.45 1.38 1.42 1.54 1.65 1.71 1.71 1.69 1.61 1.53 1.53 1.42 1.36 1.30 1.31 1.40 1.44 1.51 1.47 1.32 1.31 1.50 1.61 1.69 1.76 1.72 1.66 1.63 1.63 1.53 1.28
1.42 1.48 1.47 1.54 1.54 1.55 1.52 1.47 1.39 1.38 1.40 1.40 1.43 1.48 1.46 1.49 1.60 1.65 1.65 1.75 1.80 1.67 1.42 1.22 1.15 1.04 1.02 0.97 0.99 1.11 1.27 1.37 1.35 1.34 1.43 1.44 1.47 1.62 1.66 1.66 1.66 1.64 1.48 1.31
1.32 1.40 1.41 1.36 1.28 1.33 1.34 1.33 1.29 1.26 1.28 1.35 1.42 1.41 1.42 1.46 1.55 1.67 1.69 1.68 1.71 1.66 1.42 1.22 1.00 0.86 0.78 0.75 0.80 0.86 0.99 1.15 1.18 1.14 1.16 1.23 1.33 1.47 1.56 1.53 1.54 1.60 1.53 1.40
1.26 1.30 1.26 1.23 1.21 1.23 1.22 1.16 1.16 1.23 1.24 1.26 1.35 1.41 1.49 1.49 1.43 1.53 1.69 1.73 1.61 1.55 1.46 1.37 1.11 0.94 0.79 0.76 0.77 0.83 0.94 1.06 1.03 0.98 0.96 1.05 1.19 1.31 1.38 1.36 1.34 1.33 1.27 1.22
1.28 1.21 1.13 1.11 1.12 1.17 1.20 1.17 1.09 1.06 1.08 1.17 1.25 1.32 1.43 1.42 1.42 1.45 1.44 1.60 1.59 1.63 1.48 1.33 1.15 1.02 0.92 0.81 0.72 0.79 0.92 0.99 0.97 0.88 0.85 0.95 1.14 1.24 1.30 1.35 1.36 1.31 1.26 1.23
1.36 1.25 1.17 1.16 1.10 1.11 1.13 1.13 1.10 1.08 1.18 1.32 1.33 1.36 1.42 1.39 1.42 1.56 1.49 1.29 1.25 1.40 1.27 1.17 1.18 1.08 0.93 0.80 0.76 0.82 0.95 1.03 1.00 0.89 0.88 0.97 1.07 1.14 1.21 1.22 1.27 1.31 1.32 1.25
1.38 1.24 1.21 1.24 1.18 1.15 1.27 1.19 1.13 1.18 1.26 1.37 1.33 1.32 1.37 1.38 1.37 1.29 1.26 1.20 1.16 1.25 1.09 1.01 0.99 0.95 0.92 0.86 0.88 0.91 0.95 0.99 0.98 0.89 0.89 0.92 0.93 0.98 1.06 1.16 1.26 1.32 1.29 1.22
1.33 1.27 1.23 1.32 1.37 1.32 1.38 1.26 1.17 1.22 1.25 1.31 1.24 1.24 1.28 1.28 1.39 1.34 1.22 1.12 1.14 1.18 1.09 1.05 0.98 0.94 0.90 0.95 1.03 1.02 1.01 1.02 1.03 0.97 0.93 0.90 0.92 0.97 1.06 1.21 1.34 1.35 1.27 1.25
1.39 1.39 1.35 1.36 1.33 1.26 1.25 1.17 1.10 1.13 1.28 1.46 1.35 1.22 1.29 1.30 1.25 1.30 1.32 1.22 1.17 1.19 1.16 1.11 1.05 1.00 0.98 1.09 1.19 1.19 1.13 1.08 1.05 1.04 1.04 1.07 1.10 1.14 1.21 1.32 1.35 1.28 1.17 1.12
1.39 1.33 1.28 1.25 1.24 1.23 1.23 1.16 1.10 1.15 1.28 1.50 1.45 1.22 1.21 1.22 1.23 1.30 1.31 1.32 1.26 1.24 1.23 1.15 1.07 1.02 1.04 1.09 1.12 1.10 1.11 1.12 1.10 1.05 1.04 1.08 1.12 1.16 1.15 1.20 1.20 1.13 1.06 0.98